M I D A S
Marine Information and Data Acquisition System
Tripno 2190 of the Zeeleeuw from 2011-10-03 05:13:32 to 2011-10-03 15:36:37
Back to CruiseResearch ActivitiesStationsMapUnderway DataData graphs

EquipmentUnitsComments
TimeDGPSUTC
LatitudeDGPSDM.mWGS84
LongitudeDGPSDM.mWGS84
SpeedMeteo Stationm/sRelative wind speed
DirectionMeteo StationdegRelative wind direction
TemperatureMeteo Stationdeg CelciusAir temperature
PressureMeteo StationPaAtmospheric pressure
HumidityMeteo Station%Relative humidity
Missing or incorrect values are displayed as -999
Metereological data collected by the RV Zeeleeuw from 2011-10-03 05:03:12 to 2011-10-03 15:48:07
Time Latitude Longitude Speed Direction Temperature Pressure Humidity
2011-10-03 05:04 51°13.638 2°56.004 0.1 31 14.9 102040 48
2011-10-03 05:05 51°13.665 2°55.904 0.1 40 14.9 102050 49
2011-10-03 05:06 51°13.701 2°55.798 0.2 27 14.9 102050 49
2011-10-03 05:07 51°13.764 2°55.702 0.1 19 14.9 102050 49
2011-10-03 05:08 51°13.844 2°55.629 2.2 26 15 102050 49
2011-10-03 05:09 51°13.921 2°55.603 0.3 321 15.1 102050 49
2011-10-03 05:10 51°13.97 2°55.631 -999 24 15.2 102050 49
2011-10-03 05:11 51°13.982 2°55.617 0.2 248 15.3 102050 48
2011-10-03 05:12 51°14.044 2°55.514 -999 254 15.4 102050 49
2011-10-03 05:13 51°14.168 2°55.397 -999 24 15.5 102050 49
2011-10-03 05:14 51°14.298 2°55.271 5.6 22 15.6 102040 48
2011-10-03 05:15 51°14.435 2°55.139 6.6 260 15.8 102040 49
2011-10-03 05:16 51°14.569 2°55.005 6.8 250 16.2 102040 49
2011-10-03 05:17 51°14.728 2°54.861 5.2 247 16.6 102030 48
2011-10-03 05:18 51°14.893 2°54.689 4.7 246 16.7 102040 47
2011-10-03 05:19 51°15.065 2°54.503 5.5 21 16.7 102030 47
2011-10-03 05:20 51°15.224 2°54.291 6.6 246 16.7 102030 47
2011-10-03 05:21 51°15.396 2°54.102 6 21 16.8 102030 48
2011-10-03 05:22 51°15.561 2°53.9 6.3 21 16.8 102020 47
2011-10-03 05:23 51°15.709 2°53.675 6.1 243 16.8 102020 47
2011-10-03 05:24 51°15.877 2°53.483 5 246 16.8 102020 48
2011-10-03 05:25 51°16.068 2°53.341 5.1 246 16.8 102020 48
2011-10-03 05:26 51°16.273 2°53.237 3.8 252 16.7 102020 47
2011-10-03 05:27 51°16.475 2°53.126 4.7 23 16.7 102010 47
2011-10-03 05:28 51°16.665 2°52.977 4.7 25 16.6 102010 48
2011-10-03 05:29 51°16.866 2°52.863 4.3 249 16.6 102020 48
2011-10-03 05:30 51°17.064 2°52.737 6 21 16.6 102010 48
2011-10-03 05:31 51°17.263 2°52.608 4.8 249 16.5 102010 49
2011-10-03 05:32 51°17.483 2°52.587 1.8 248 16.5 102020 48
2011-10-03 05:33 51°17.706 2°52.623 -999 247 16.5 102020 49
2011-10-03 05:34 51°17.929 2°52.655 -999 254 16.5 102020 49
2011-10-03 05:35 51°18.148 2°52.732 -999 247 16.5 102020 49
2011-10-03 05:36 51°18.318 2°52.966 0.1 10 16.5 102020 49
2011-10-03 05:37 51°18.468 2°53.239 -999 10 16.6 102020 50
2011-10-03 05:38 51°18.623 2°53.503 2.3 13 16.6 102020 50
2011-10-03 05:39 51°18.781 2°53.758 2.8 4 16.6 102030 51
2011-10-03 05:40 51°18.933 2°54.024 3.5 12 16.7 102020 51
2011-10-03 05:41 51°19.083 2°54.291 2.5 9 16.6 102030 50
2011-10-03 05:42 51°19.242 2°54.543 0.1 9 16.6 102030 50
2011-10-03 05:43 51°19.4 2°54.799 2.2 8 16.8 102030 50
2011-10-03 05:44 51°19.549 2°55.07 3 11 16.8 102030 49
2011-10-03 05:45 51°19.711 2°55.318 -999 7 16.8 102030 49
2011-10-03 05:46 51°19.85 2°55.599 -999 11 16.9 102030 50
2011-10-03 05:47 51°19.98 2°55.889 0.1 11 16.9 102030 50
2011-10-03 05:48 51°20.122 2°56.167 -999 14 17 102040 50
2011-10-03 05:49 51°20.26 2°56.451 2.4 2 17.1 102030 50
2011-10-03 05:50 51°20.385 2°56.749 3.2 6 17.1 102040 49
2011-10-03 05:51 51°20.52 2°57.036 2.5 11 17.1 102040 50
2011-10-03 05:52 51°20.66 2°57.318 2.1 11 17.2 102030 50
2011-10-03 05:53 51°20.793 2°57.613 0.2 4 17.3 102040 50
2011-10-03 05:54 51°20.929 2°57.9 2.3 12 17.3 102030 50
2011-10-03 05:55 51°21.058 2°58.195 3.3 9 17.3 102030 49
2011-10-03 05:56 51°21.191 2°58.489 2.7 15 17.4 102030 49
2011-10-03 05:57 51°21.345 2°58.755 0.1 10 17.4 102030 50
2011-10-03 05:58 51°21.498 2°59.025 2.5 10 17.4 102030 47
2011-10-03 05:59 51°21.643 2°59.304 2.4 11 17.4 102030 49
2011-10-03 06:00 51°21.785 2°59.589 2.7 9 17.5 102030 49
2011-10-03 06:01 51°21.927 2°59.875 3.2 9 17.5 102030 48
2011-10-03 06:02 51°22.053 3°0.183 3.5 7 17.6 102030 50
2011-10-03 06:03 51°22.193 3°0.474 0.1 6 17.6 102030 49
2011-10-03 06:04 51°22.323 3°0.777 3.5 5 17.5 102030 49
2011-10-03 06:05 51°22.453 3°1.08 2.1 6 17.5 102040 49
2011-10-03 06:06 51°22.589 3°1.379 0.1 358 17.6 102040 49
2011-10-03 06:07 51°22.721 3°1.682 -999 356 17.6 102040 49
2011-10-03 06:08 51°22.867 3°1.965 0.1 -999 17.5 102040 49
2011-10-03 06:09 51°23.01 3°2.251 -999 3 17.4 102040 49
2011-10-03 06:10 51°23.139 3°2.554 0.1 358 17.3 102040 49
2011-10-03 06:11 51°23.271 3°2.85 -999 3 17.3 102050 49
2011-10-03 06:12 51°23.417 3°3.129 -999 356 17.4 102040 50
2011-10-03 06:13 51°23.553 3°3.417 -999 360 17.3 102040 50
2011-10-03 06:14 51°23.715 3°3.678 -999 1 17.3 102040 50
2011-10-03 06:15 51°23.865 3°3.94 -999 8 17.2 102040 50
2011-10-03 06:16 51°24.015 3°4.209 0.1 -999 17.2 102040 50
2011-10-03 06:17 51°24.135 3°4.512 0.1 1 17.2 102040 50
2011-10-03 06:18 51°24.259 3°4.81 0.1 -999 17.2 102040 50
2011-10-03 06:19 51°24.392 3°5.093 -999 4 17.2 102040 50
2011-10-03 06:20 51°24.525 3°5.379 -999 3 17.2 102040 49
2011-10-03 06:21 51°24.651 3°5.674 -999 7 17.2 102040 50
2011-10-03 06:22 51°24.783 3°5.965 0.1 7 17.2 102030 50
2011-10-03 06:23 51°24.922 3°6.247 -999 7 17.2 102040 49
2011-10-03 06:24 51°25.048 3°6.549 3.3 7 17.2 102040 49
2011-10-03 06:25 51°25.182 3°6.84 2.1 11 17.2 102040 49
2011-10-03 06:26 51°25.32 3°7.127 -999 5 17.2 102040 49
2011-10-03 06:27 51°25.437 3°7.436 3 8 17.3 102050 50
2011-10-03 06:28 51°25.562 3°7.736 3 1 17.3 102050 50
2011-10-03 06:29 51°25.693 3°8.03 0.1 4 17.3 102050 50
2011-10-03 06:30 51°25.814 3°8.333 0.4 3 17.2 102050 49
2011-10-03 06:31 51°25.932 3°8.637 3.6 3 17.2 102050 49
2011-10-03 06:32 51°26.06 3°8.93 3.6 5 17.2 102050 50
2011-10-03 06:33 51°26.179 3°9.23 4 2 17.2 102050 49
2011-10-03 06:34 51°26.292 3°9.533 3.4 2 17.2 102040 50
2011-10-03 06:35 51°26.388 3°9.848 -999 6 17.2 102040 49
2011-10-03 06:36 51°26.481 3°10.165 -999 6 17.2 102050 50
2011-10-03 06:37 51°26.583 3°10.475 -999 7 17.1 102050 50
2011-10-03 06:38 51°26.685 3°10.782 -999 8 17 102050 50
2011-10-03 06:39 51°26.769 3°11.1 -999 8 17 102040 50
2011-10-03 06:40 51°26.824 3°11.429 0.1 7 17 102040 49
2011-10-03 06:41 51°26.879 3°11.757 0.1 5 17 102040 50
2011-10-03 06:42 51°26.945 3°12.082 4.5 6 17.1 102040 49
2011-10-03 06:43 51°27.001 3°12.414 5.2 360 17.2 102040 49
2011-10-03 06:44 51°27.01 3°12.737 6.6 360 17.2 102030 49
2011-10-03 06:45 51°26.997 3°13.061 6.9 358 17.2 102030 50
2011-10-03 06:46 51°27.013 3°13.389 6.1 2 17.2 102030 49
2011-10-03 06:47 51°27.044 3°13.653 6 15 17.2 102040 49
2011-10-03 06:48 51°27.058 3°13.801 5.4 17 17.1 102040 50
2011-10-03 06:49 51°27.062 3°13.89 6.3 13 17.1 102030 49
2011-10-03 06:50 51°27.066 3°13.951 5.5 17 17.1 102030 50
2011-10-03 06:51 51°27.069 3°14.004 6.6 14 17.1 102030 49
2011-10-03 06:52 51°27.066 3°14.062 6.8 7 17 102030 49
2011-10-03 06:53 51°27.057 3°14.122 6.1 6 17.1 102040 50
2011-10-03 06:54 51°27.047 3°14.182 6.5 8 17.1 102040 50
2011-10-03 06:55 51°27.035 3°14.243 6.5 5 17.1 102040 49
2011-10-03 06:56 51°27.021 3°14.302 7.2 1 17.2 102030 49
2011-10-03 06:57 51°27.003 3°14.354 6.1 359 17.2 102030 49
2011-10-03 06:58 51°26.982 3°14.4 6.9 354 17.2 102020 49
2011-10-03 06:59 51°26.958 3°14.442 7.5 353 17.2 102020 49
2011-10-03 07:00 51°26.934 3°14.485 7.1 354 17.1 102030 48
2011-10-03 07:01 51°26.911 3°14.527 6.3 356 17.2 102030 49
2011-10-03 07:02 51°26.888 3°14.566 6.8 352 17.2 102040 49
2011-10-03 07:03 51°26.865 3°14.603 6.2 354 17.2 102030 49
2011-10-03 07:04 51°26.842 3°14.641 7.7 355 17.2 102030 49
2011-10-03 07:05 51°26.82 3°14.678 7.1 353 17.2 102030 49
2011-10-03 07:06 51°26.796 3°14.712 6.9 351 17.2 102030 49
2011-10-03 07:07 51°26.773 3°14.745 7.4 353 17.2 102030 48
2011-10-03 07:08 51°26.75 3°14.774 7.9 352 17.3 102030 48
2011-10-03 07:09 51°26.728 3°14.798 6.9 351 17.3 102030 48
2011-10-03 07:10 51°26.705 3°14.819 9.6 351 17.3 102030 48
2011-10-03 07:11 51°26.68 3°14.851 6.8 6 17.3 102030 48
2011-10-03 07:12 51°26.718 3°14.957 2.4 24 17.3 102050 48
2011-10-03 07:13 51°26.81 3°14.906 7.7 28 17.4 102040 48
2011-10-03 07:14 51°26.804 3°14.749 11.1 325 17.4 102030 48
2011-10-03 07:15 51°26.754 3°14.567 9.9 319 17.4 102030 48
2011-10-03 07:16 51°26.769 3°14.363 8.1 26 17.4 102020 47
2011-10-03 07:17 51°26.834 3°14.214 7 21 17.4 102030 48
2011-10-03 07:18 51°26.884 3°14.104 6.5 244 17.4 102040 48
2011-10-03 07:19 51°26.91 3°14.095 7 259 17.4 102040 49
2011-10-03 07:20 51°26.935 3°14.099 4.8 265 17.4 102050 48
2011-10-03 07:21 51°26.961 3°14.1 6.3 270 17.3 102050 49
2011-10-03 07:22 51°26.989 3°14.101 6.3 22 17.3 102050 48
2011-10-03 07:23 51°27.019 3°14.101 6 269 17.2 102050 49
2011-10-03 07:24 51°27.05 3°14.099 6.4 269 17.3 102050 49
2011-10-03 07:25 51°27.081 3°14.096 4.5 264 17.2 102050 48
2011-10-03 07:26 51°27.111 3°14.09 6.7 262 17.3 102050 49
2011-10-03 07:27 51°27.141 3°14.083 7.6 259 17.3 102050 49
2011-10-03 07:28 51°27.171 3°14.077 6.8 258 17.3 102060 49
2011-10-03 07:29 51°27.201 3°14.07 7.1 258 17.3 102050 49
2011-10-03 07:30 51°27.231 3°14.064 6.8 254 17.4 102050 50
2011-10-03 07:31 51°27.261 3°14.057 7.3 256 17.4 102060 49
2011-10-03 07:32 51°27.299 3°14.037 8 258 17.4 102060 48
2011-10-03 07:33 51°27.388 3°14.02 4.3 22 17.4 102060 48
2011-10-03 07:34 51°27.458 3°14.076 3.2 23 17.4 102070 50
2011-10-03 07:35 51°27.504 3°14.166 5.2 30 17.4 102070 49
2011-10-03 07:36 51°27.524 3°14.268 6.4 27 17.4 102070 49
2011-10-03 07:37 51°27.538 3°14.347 6.6 29 17.4 102070 50
2011-10-03 07:38 51°27.552 3°14.416 6.4 27 17.4 102070 50
2011-10-03 07:39 51°27.566 3°14.49 6.3 27 17.3 102070 49
2011-10-03 07:40 51°27.582 3°14.571 7.2 32 17.3 102070 49
2011-10-03 07:41 51°27.599 3°14.654 6.6 29 17.3 102060 49
2011-10-03 07:42 51°27.616 3°14.739 6.7 29 17.3 102060 50
2011-10-03 07:43 51°27.631 3°14.823 6.4 30 17.3 102060 49
2011-10-03 07:44 51°27.643 3°14.906 5.7 27 17.3 102070 49
2011-10-03 07:45 51°27.648 3°14.983 6.5 18 17.3 102060 49
2011-10-03 07:46 51°27.644 3°15.053 7.5 16 17.3 102060 49
2011-10-03 07:47 51°27.629 3°15.115 7.7 7 17.3 102050 49
2011-10-03 07:48 51°27.597 3°15.172 5.9 3 17.2 102060 50
2011-10-03 07:49 51°27.558 3°15.224 8.3 360 17.2 102050 50
2011-10-03 07:50 51°27.511 3°15.256 8.9 354 17.2 102050 49
2011-10-03 07:51 51°27.462 3°15.275 10 356 17.2 102040 49
2011-10-03 07:52 51°27.413 3°15.296 11.2 353 17.2 102040 49
2011-10-03 07:53 51°27.363 3°15.307 9 350 17.2 102030 50
2011-10-03 07:54 51°27.312 3°15.302 6.9 348 17.2 102030 50
2011-10-03 07:55 51°27.262 3°15.287 10 345 17.1 102030 49
2011-10-03 07:56 51°27.214 3°15.247 9.3 339 17.2 102030 49
2011-10-03 07:57 51°27.175 3°15.187 7.8 337 17.2 102040 49
2011-10-03 07:58 51°27.143 3°15.133 8.7 339 17.2 102040 49
2011-10-03 07:59 51°27.112 3°15.083 7.9 338 17.2 102040 49
2011-10-03 08:00 51°27.08 3°15.035 8.2 341 17.2 102040 49
2011-10-03 08:01 51°27.048 3°14.989 9.9 341 17.3 102040 50
2011-10-03 08:02 51°27.014 3°14.945 10.3 340 17.3 102040 50
2011-10-03 08:03 51°26.979 3°14.902 8.9 338 17.3 102040 49
2011-10-03 08:04 51°26.944 3°14.853 7.4 338 17.2 102040 49
2011-10-03 08:05 51°26.911 3°14.801 7.5 336 17.2 102040 49
2011-10-03 08:06 51°26.877 3°14.749 8.7 336 17.3 102040 49
2011-10-03 08:07 51°26.85 3°14.682 8.7 324 17.3 102040 49
2011-10-03 08:08 51°26.844 3°14.59 8.4 23 17.2 102040 49
2011-10-03 08:09 51°26.865 3°14.489 8.3 25 17.2 102030 49
2011-10-03 08:10 51°26.91 3°14.412 6.9 257 17.3 102040 50
2011-10-03 08:11 51°26.959 3°14.347 7.4 255 17.3 102040 50
2011-10-03 08:12 51°27.041 3°14.238 7.6 22 17.4 102040 50
2011-10-03 08:13 51°27.117 3°14.1 6.3 26 17.4 102040 50
2011-10-03 08:14 51°27.157 3°14.005 6.6 21 17.4 102040 50
2011-10-03 08:15 51°27.187 3°13.937 6.2 26 17.5 102040 50
2011-10-03 08:16 51°27.215 3°13.885 6.6 29 17.5 102040 50
2011-10-03 08:17 51°27.241 3°13.845 5.5 23 17.5 102040 50
2011-10-03 08:18 51°27.268 3°13.812 2.9 248 17.5 102040 49
2011-10-03 08:19 51°27.302 3°13.738 6.2 29 17.6 102040 50
2011-10-03 08:20 51°27.363 3°13.507 10.8 21 17.6 102030 49
2011-10-03 08:21 51°27.398 3°13.192 10.2 317 17.5 102020 49
2011-10-03 08:22 51°27.41 3°12.856 11.3 27 17.5 102020 50
2011-10-03 08:23 51°27.431 3°12.518 10.2 22 17.5 102010 50
2011-10-03 08:24 51°27.441 3°12.18 9.9 316 17.5 102020 50
2011-10-03 08:25 51°27.452 3°11.843 9.2 27 17.5 102010 50
2011-10-03 08:26 51°27.475 3°11.505 11.1 23 17.6 102020 50
2011-10-03 08:27 51°27.492 3°11.168 11.4 318 17.6 102020 50
2011-10-03 08:28 51°27.506 3°10.832 12.5 21 17.6 102020 50
2011-10-03 08:29 51°27.549 3°10.501 10.9 22 17.6 102020 50
2011-10-03 08:30 51°27.614 3°10.176 11.6 28 17.6 102020 49
2011-10-03 08:31 51°27.687 3°9.852 10.7 26 17.7 102020 50
2011-10-03 08:32 51°27.752 3°9.527 14.3 23 17.7 102010 50
2011-10-03 08:33 51°27.825 3°9.207 12.2 24 17.6 102020 50
2011-10-03 08:34 51°27.901 3°8.889 10.5 26 17.7 102010 50
2011-10-03 08:35 51°27.957 3°8.565 9 29 17.7 102010 50
2011-10-03 08:36 51°28.013 3°8.243 9 23 17.7 102010 50
2011-10-03 08:37 51°28.077 3°7.921 10.4 20 17.7 102010 50
2011-10-03 08:38 51°28.143 3°7.6 10.6 27 17.7 102010 50
2011-10-03 08:39 51°28.21 3°7.28 9.7 26 17.8 102010 50
2011-10-03 08:40 51°28.262 3°6.952 12.2 25 17.8 102010 50
2011-10-03 08:41 51°28.319 3°6.627 9.5 27 17.8 102010 50
2011-10-03 08:42 51°28.389 3°6.308 10.7 26 17.8 102000 50
2011-10-03 08:43 51°28.448 3°5.985 13.4 29 17.8 102000 49
2011-10-03 08:44 51°28.513 3°5.662 11.6 26 17.8 102010 50
2011-10-03 08:45 51°28.578 3°5.339 12.3 22 17.7 102010 49
2011-10-03 08:46 51°28.633 3°5.012 5.9 30 17.7 102000 50
2011-10-03 08:47 51°28.682 3°4.683 4.4 28 17.7 101990 49
2011-10-03 08:48 51°28.739 3°4.357 13.3 23 17.7 101990 50
2011-10-03 08:49 51°28.79 3°4.028 12.3 28 17.6 101990 50
2011-10-03 08:50 51°28.843 3°3.7 10.1 26 17.6 101990 50
2011-10-03 08:51 51°28.897 3°3.376 10.6 29 17.6 101990 50
2011-10-03 08:52 51°28.945 3°3.05 11.8 27 17.6 102000 51
2011-10-03 08:53 51°28.995 3°2.726 13.4 23 17.5 101990 50
2011-10-03 08:54 51°29.054 3°2.405 10 28 17.5 101990 51
2011-10-03 08:55 51°29.129 3°2.094 11.6 26 17.5 102000 51
2011-10-03 08:56 51°29.205 3°1.785 9.2 24 17.5 102000 51
2011-10-03 08:57 51°29.269 3°1.472 11.1 25 17.5 102000 52
2011-10-03 08:58 51°29.336 3°1.157 10.9 25 17.5 102000 52
2011-10-03 08:59 51°29.409 3°0.841 10 25 17.6 102000 52
2011-10-03 09:00 51°29.47 3°0.517 12.6 21 17.5 101990 52
2011-10-03 09:01 51°29.527 3°0.19 12.1 26 17.6 102000 52
2011-10-03 09:02 51°29.597 2°59.868 9.4 26 17.6 102000 52
2011-10-03 09:03 51°29.662 2°59.543 6 27 17.6 102000 52
2011-10-03 09:04 51°29.734 2°59.221 9.8 24 17.7 102000 52
2011-10-03 09:05 51°29.821 2°58.908 12 22 17.7 102000 53
2011-10-03 09:06 51°29.898 2°58.595 9.4 29 17.7 102000 52
2011-10-03 09:07 51°29.975 2°58.284 10.1 24 17.8 102010 52
2011-10-03 09:08 51°30.058 2°57.975 10.1 23 17.8 101990 51
2011-10-03 09:09 51°30.14 2°57.665 9.6 29 17.8 101990 52
2011-10-03 09:10 51°30.223 2°57.355 13 22 17.8 102000 52
2011-10-03 09:11 51°30.295 2°57.037 10.6 21 17.8 102010 52
2011-10-03 09:12 51°30.369 2°56.719 11.1 24 17.8 102010 52
2011-10-03 09:13 51°30.451 2°56.405 9.8 27 17.8 102000 52
2011-10-03 09:14 51°30.524 2°56.085 9.6 27 17.8 102000 52
2011-10-03 09:15 51°30.593 2°55.762 11.4 23 17.8 102000 52
2011-10-03 09:16 51°30.671 2°55.447 7.9 29 17.8 102000 52
2011-10-03 09:17 51°30.753 2°55.133 10.8 27 17.8 102000 53
2011-10-03 09:18 51°30.824 2°54.81 11 29 17.8 102000 52
2011-10-03 09:19 51°30.898 2°54.492 10.5 27 17.8 102000 52
2011-10-03 09:20 51°30.972 2°54.175 9.6 26 17.8 102000 53
2011-10-03 09:21 51°31.051 2°53.862 10.7 24 17.8 102010 53
2011-10-03 09:22 51°31.135 2°53.554 10.3 21 17.9 102000 52
2011-10-03 09:23 51°31.219 2°53.25 9.9 28 17.9 102000 52
2011-10-03 09:24 51°31.3 2°52.945 11.9 23 18 102000 52
2011-10-03 09:25 51°31.365 2°52.67 9.1 24 18 102010 52
2011-10-03 09:26 51°31.42 2°52.441 8.5 21 18 102000 51
2011-10-03 09:27 51°31.442 2°52.29 9.8 316 18 102010 52
2011-10-03 09:28 51°31.45 2°52.224 7.2 27 18.1 102010 52
2011-10-03 09:29 51°31.462 2°52.213 7.2 24 18.1 102020 51
2011-10-03 09:30 51°31.476 2°52.211 7.9 253 18.1 102020 52
2011-10-03 09:31 51°31.49 2°52.213 8.6 261 18.1 102020 52
2011-10-03 09:32 51°31.502 2°52.217 8 261 18.1 102020 52
2011-10-03 09:33 51°31.514 2°52.223 8 263 18.1 102010 52
2011-10-03 09:34 51°31.524 2°52.228 9.7 259 18.1 102020 52
2011-10-03 09:35 51°31.534 2°52.235 6.7 260 18.1 102030 51
2011-10-03 09:36 51°31.544 2°52.242 9.3 261 18.1 102020 52
2011-10-03 09:37 51°31.553 2°52.25 5.6 263 18.1 102020 51
2011-10-03 09:38 51°31.562 2°52.258 6.6 261 18.2 102020 51
2011-10-03 09:39 51°31.57 2°52.265 6.5 262 18.1 102030 52
2011-10-03 09:40 51°31.579 2°52.274 9 257 18.2 102030 51
2011-10-03 09:41 51°31.586 2°52.281 9.4 259 18.2 102030 52
2011-10-03 09:42 51°31.594 2°52.288 6.8 262 18.1 102030 51
2011-10-03 09:43 51°31.609 2°52.288 5.7 265 18.2 102030 52
2011-10-03 09:44 51°31.658 2°52.301 3.5 27 18.1 102030 51
2011-10-03 09:45 51°31.67 2°52.381 8.7 27 18.1 102050 51
2011-10-03 09:46 51°31.647 2°52.451 7.1 22 18.1 102050 52
2011-10-03 09:47 51°31.624 2°52.509 8.5 18 18 102040 52
2011-10-03 09:48 51°31.602 2°52.559 7.4 12 18 102040 52
2011-10-03 09:49 51°31.577 2°52.606 8.8 15 18 102040 52
2011-10-03 09:50 51°31.547 2°52.658 9.2 16 18 102040 52
2011-10-03 09:51 51°31.516 2°52.713 8.2 14 18 102040 52
2011-10-03 09:52 51°31.484 2°52.769 7.5 16 18.1 102040 52
2011-10-03 09:53 51°31.451 2°52.823 7.9 20 18 102040 52
2011-10-03 09:54 51°31.419 2°52.882 9.2 17 18 102040 52
2011-10-03 09:55 51°31.386 2°52.947 9.1 17 18 102050 51
2011-10-03 09:56 51°31.352 2°53.012 9.5 18 18.1 102040 51
2011-10-03 09:57 51°31.319 2°53.074 7 18 18 102050 51
2011-10-03 09:58 51°31.286 2°53.133 9.4 13 18.1 102050 52
2011-10-03 09:59 51°31.254 2°53.187 9.1 17 18.1 102050 52
2011-10-03 10:00 51°31.22 2°53.243 8.9 20 18.1 102040 51
2011-10-03 10:01 51°31.185 2°53.298 9 15 18.1 102040 51
2011-10-03 10:02 51°31.153 2°53.354 8.2 13 18.1 102040 52
2011-10-03 10:03 51°31.121 2°53.41 8.5 17 18.1 102040 51
2011-10-03 10:04 51°31.088 2°53.466 8.9 17 18.1 102040 51
2011-10-03 10:05 51°31.055 2°53.519 8.8 14 18.2 102040 51
2011-10-03 10:06 51°31.02 2°53.567 8.6 19 18.2 102040 51
2011-10-03 10:07 51°30.985 2°53.62 8.3 17 18.2 102040 50
2011-10-03 10:08 51°30.948 2°53.675 9.7 19 18.2 102050 50
2011-10-03 10:09 51°30.912 2°53.731 8.5 18 18.2 102050 51
2011-10-03 10:10 51°30.874 2°53.782 9.5 17 18.3 102050 51
2011-10-03 10:11 51°30.835 2°53.829 8.7 14 18.3 102050 51
2011-10-03 10:12 51°30.797 2°53.876 9.8 14 18.3 102050 51
2011-10-03 10:13 51°30.759 2°53.923 7.8 17 18.2 102060 51
2011-10-03 10:14 51°30.722 2°53.97 8.9 20 18.3 102050 50
2011-10-03 10:15 51°30.686 2°54.017 8.3 22 18.3 102050 51
2011-10-03 10:16 51°30.651 2°54.062 8.7 16 18.3 102050 51
2011-10-03 10:17 51°30.615 2°54.104 8.2 21 18.3 102050 50
2011-10-03 10:18 51°30.579 2°54.146 8.9 17 18.3 102050 50
2011-10-03 10:19 51°30.539 2°54.193 9.8 12 18.3 102050 50
2011-10-03 10:20 51°30.461 2°54.17 12.9 333 18.3 102030 51
2011-10-03 10:21 51°30.465 2°54.021 10.4 26 18.3 102020 50
2011-10-03 10:22 51°30.56 2°53.85 9.4 247 18.4 102030 50
2011-10-03 10:23 51°30.719 2°53.691 9.9 24 18.4 102030 50
2011-10-03 10:24 51°30.879 2°53.488 9.9 24 18.5 102020 50
2011-10-03 10:25 51°31.036 2°53.288 9.6 26 18.5 102020 50
2011-10-03 10:26 51°31.203 2°53.102 10.2 21 18.5 102020 50
2011-10-03 10:27 51°31.363 2°52.912 9.8 24 18.6 102020 49
2011-10-03 10:28 51°31.525 2°52.719 9.7 242 18.6 102010 49
2011-10-03 10:29 51°31.695 2°52.544 9.8 26 18.6 102020 50
2011-10-03 10:30 51°31.857 2°52.351 9.8 27 18.7 102010 49
2011-10-03 10:31 51°32.014 2°52.146 10.2 244 18.7 102010 50
2011-10-03 10:32 51°32.18 2°51.962 12.2 26 18.6 102010 50
2011-10-03 10:33 51°32.341 2°51.769 9.6 23 18.6 102010 50
2011-10-03 10:34 51°32.502 2°51.576 8.9 23 18.6 102010 50
2011-10-03 10:35 51°32.658 2°51.37 10.1 26 18.6 102010 50
2011-10-03 10:36 51°32.82 2°51.174 9.9 22 18.6 102010 50
2011-10-03 10:37 51°32.983 2°50.983 9.6 26 18.6 102010 50
2011-10-03 10:38 51°33.152 2°50.814 8.9 21 18.6 102020 50
2011-10-03 10:39 51°33.328 2°50.662 8.8 25 18.6 102020 50
2011-10-03 10:40 51°33.491 2°50.476 9.1 29 18.6 102020 50
2011-10-03 10:41 51°33.652 2°50.277 9.6 28 18.6 102020 50
2011-10-03 10:42 51°33.817 2°50.093 9.4 27 18.6 102020 50
2011-10-03 10:43 51°33.983 2°49.914 9 29 18.5 102010 50
2011-10-03 10:44 51°34.147 2°49.724 10.3 24 18.5 102010 50
2011-10-03 10:45 51°34.308 2°49.53 11.7 23 18.5 102010 50
2011-10-03 10:46 51°34.474 2°49.348 10.1 241 18.5 102010 50
2011-10-03 10:47 51°34.634 2°49.155 11.1 241 18.5 102010 50
2011-10-03 10:48 51°34.791 2°48.956 11.8 23 18.5 102000 50
2011-10-03 10:49 51°34.948 2°48.76 10.3 22 18.5 102000 51
2011-10-03 10:50 51°35.105 2°48.563 9 26 18.4 102000 50
2011-10-03 10:51 51°35.264 2°48.374 9.1 22 18.4 102000 50
2011-10-03 10:52 51°35.422 2°48.184 11.4 26 18.4 102000 50
2011-10-03 10:53 51°35.577 2°47.984 11.2 22 18.3 101990 50
2011-10-03 10:54 51°35.741 2°47.807 11.1 21 18.3 102000 51
2011-10-03 10:55 51°35.903 2°47.628 9.3 244 18.3 102000 51
2011-10-03 10:56 51°36.062 2°47.439 10.9 29 18.3 101990 51
2011-10-03 10:57 51°36.22 2°47.249 9.6 246 18.4 102000 50
2011-10-03 10:58 51°36.383 2°47.07 10.1 20 18.4 101990 51
2011-10-03 10:59 51°36.546 2°46.888 9 26 18.4 102000 51
2011-10-03 11:00 51°36.708 2°46.693 13.2 27 18.4 101990 51
2011-10-03 11:01 51°36.87 2°46.497 10.4 27 18.4 101980 51
2011-10-03 11:02 51°37.036 2°46.315 10.6 24 18.4 101990 51
2011-10-03 11:03 51°37.204 2°46.128 10.3 246 18.5 101980 50
2011-10-03 11:04 51°37.37 2°45.945 9.2 22 18.5 101990 50
2011-10-03 11:05 51°37.542 2°45.789 7.5 21 18.5 101990 51
2011-10-03 11:06 51°37.714 2°45.645 10.6 20 18.5 101990 50
2011-10-03 11:07 51°37.884 2°45.491 9.9 23 18.6 101990 50
2011-10-03 11:08 51°38.05 2°45.331 4.8 247 18.6 101980 50
2011-10-03 11:09 51°38.226 2°45.215 7.4 22 18.6 101980 50
2011-10-03 11:10 51°38.408 2°45.128 6.8 250 18.6 101990 50
2011-10-03 11:11 51°38.589 2°45.037 7.4 245 18.6 101990 50
2011-10-03 11:12 51°38.772 2°44.941 9.8 253 18.6 101980 50
2011-10-03 11:13 51°38.954 2°44.845 9.3 20 18.6 101980 50
2011-10-03 11:14 51°39.134 2°44.743 7.3 248 18.5 101980 50
2011-10-03 11:15 51°39.316 2°44.644 9.9 250 18.5 101980 50
2011-10-03 11:16 51°39.498 2°44.548 7.1 250 18.5 101970 50
2011-10-03 11:17 51°39.678 2°44.447 9.2 251 18.5 101970 50
2011-10-03 11:18 51°39.859 2°44.345 9.3 253 18.5 101970 50
2011-10-03 11:19 51°40.04 2°44.262 9 253 18.6 101970 49
2011-10-03 11:20 51°40.222 2°44.17 8.9 248 18.6 101970 50
2011-10-03 11:21 51°40.403 2°44.074 7.2 251 18.6 101970 50
2011-10-03 11:22 51°40.584 2°43.987 4.2 251 18.6 101970 49
2011-10-03 11:23 51°40.767 2°43.899 9.6 255 18.6 101960 49
2011-10-03 11:24 51°40.949 2°43.806 8 250 18.7 101970 50
2011-10-03 11:25 51°41.13 2°43.713 8 250 18.7 101970 49
2011-10-03 11:26 51°41.313 2°43.628 8.1 253 18.7 101970 50
2011-10-03 11:27 51°41.495 2°43.54 7.4 254 18.6 101960 49
2011-10-03 11:28 51°41.678 2°43.455 6.6 250 18.6 101960 49
2011-10-03 11:29 51°41.86 2°43.365 8.6 248 18.6 101960 49
2011-10-03 11:30 51°42.041 2°43.275 8 252 18.6 101960 49
2011-10-03 11:31 51°42.224 2°43.193 7.8 251 18.6 101960 50
2011-10-03 11:32 51°42.406 2°43.119 7.1 251 18.6 101960 50
2011-10-03 11:33 51°42.588 2°43.031 7.1 250 18.6 101950 50
2011-10-03 11:34 51°42.772 2°42.953 8.1 253 18.7 101960 50
2011-10-03 11:35 51°42.957 2°42.879 9.7 256 18.7 101950 50
2011-10-03 11:36 51°43.14 2°42.798 7.1 253 18.7 101940 50
2011-10-03 11:37 51°43.324 2°42.723 7.3 251 18.7 101950 49
2011-10-03 11:38 51°43.505 2°42.642 7.5 250 18.7 101940 50
2011-10-03 11:39 51°43.686 2°42.562 6.9 253 18.7 101950 50
2011-10-03 11:40 51°43.868 2°42.483 6.8 253 18.7 101950 49
2011-10-03 11:41 51°44.048 2°42.407 7.2 21 18.7 101940 49
2011-10-03 11:42 51°44.229 2°42.326 7.7 250 18.7 101940 49
2011-10-03 11:43 51°44.411 2°42.267 7.2 254 18.7 101940 49
2011-10-03 11:44 51°44.592 2°42.226 5.4 261 18.7 101950 50
2011-10-03 11:45 51°44.744 2°42.26 5.6 27 18.6 101950 50
2011-10-03 11:46 51°44.877 2°42.335 2.2 265 18.6 101950 49
2011-10-03 11:47 51°45.004 2°42.296 10.4 250 18.6 101940 50
2011-10-03 11:48 51°45.042 2°42.153 10.3 27 18.6 101920 50
2011-10-03 11:49 51°45.012 2°42.048 9.9 329 18.6 101920 50
2011-10-03 11:50 51°44.962 2°42.002 10.2 356 18.5 101920 50
2011-10-03 11:51 51°44.915 2°42.008 6.5 7 18.4 101930 48
2011-10-03 11:52 51°44.861 2°42.021 10.3 7 18.3 101940 51
2011-10-03 11:53 51°44.803 2°42.032 9.4 2 18.3 101930 51
2011-10-03 11:54 51°44.749 2°42.042 8.2 2 18.2 101940 52
2011-10-03 11:55 51°44.696 2°42.049 11.2 -999 18.2 101930 51
2011-10-03 11:56 51°44.643 2°42.052 9.1 359 18.2 101930 51
2011-10-03 11:57 51°44.591 2°42.056 10.2 4 18.2 101920 51
2011-10-03 11:58 51°44.539 2°42.064 7.9 2 18.1 101930 51
2011-10-03 11:59 51°44.485 2°42.074 7.3 7 18.2 101930 50
2011-10-03 12:00 51°44.432 2°42.085 9.3 5 18.1 101940 52
2011-10-03 12:01 51°44.381 2°42.093 7.2 4 18.1 101930 52
2011-10-03 12:02 51°44.332 2°42.104 8.4 5 18.1 101920 51
2011-10-03 12:03 51°44.282 2°42.118 8.1 1 18.2 101930 51
2011-10-03 12:04 51°44.231 2°42.126 12.8 358 18.2 101910 52
2011-10-03 12:05 51°44.177 2°42.134 9.1 2 18.1 101920 51
2011-10-03 12:06 51°44.124 2°42.139 10.6 358 18.1 101930 51
2011-10-03 12:07 51°44.07 2°42.143 7.8 360 18.1 101920 50
2011-10-03 12:08 51°44.017 2°42.15 7.2 1 18.1 101920 52
2011-10-03 12:09 51°43.966 2°42.156 10.3 1 18.1 101940 51
2011-10-03 12:10 51°43.915 2°42.164 9.2 3 18.1 101920 52
2011-10-03 12:11 51°43.867 2°42.176 9.3 2 18.1 101910 52
2011-10-03 12:12 51°43.82 2°42.185 9.1 3 18.2 101920 51
2011-10-03 12:13 51°43.772 2°42.189 8.3 358 18.2 101930 51
2011-10-03 12:14 51°43.723 2°42.192 10.3 -999 18.2 101910 52
2011-10-03 12:15 51°43.675 2°42.202 7.9 360 18.2 101920 50
2011-10-03 12:16 51°43.625 2°42.21 10.2 1 18.2 101920 52
2011-10-03 12:17 51°43.575 2°42.216 8.3 359 18.1 101910 52
2011-10-03 12:18 51°43.527 2°42.221 9.1 357 18.1 101920 52
2011-10-03 12:19 51°43.479 2°42.223 9.7 359 18.1 101920 52
2011-10-03 12:20 51°43.429 2°42.227 11.2 358 18.1 101920 52
2011-10-03 12:21 51°43.383 2°42.235 8.6 5 18.1 101920 52
2011-10-03 12:22 51°43.335 2°42.243 10.3 2 18.1 101910 52
2011-10-03 12:23 51°43.293 2°42.255 8.1 5 18.1 101920 51
2011-10-03 12:24 51°43.248 2°42.264 10.1 4 18.1 101920 52
2011-10-03 12:25 51°43.192 2°42.272 12.9 344 18.1 101900 52
2011-10-03 12:26 51°43.133 2°42.156 12.3 22 18.2 101890 52
2011-10-03 12:27 51°43.202 2°42.11 6 24 18.2 101910 51
2011-10-03 12:28 51°43.33 2°42.106 4.3 263 18.3 101910 51
2011-10-03 12:29 51°43.471 2°42.129 3.4 266 18.3 101920 51
2011-10-03 12:30 51°43.605 2°42.121 4.7 30 18.3 101910 51
2011-10-03 12:31 51°43.72 2°42.177 4 25 18.4 101910 50
2011-10-03 12:32 51°43.838 2°42.18 -999 26 18.3 101910 51
2011-10-03 12:33 51°43.947 2°42.186 5.2 26 18.4 101910 52
2011-10-03 12:34 51°44.063 2°42.195 5.6 268 18.4 101910 52
2011-10-03 12:35 51°44.214 2°42.19 9.1 258 18.4 101910 52
2011-10-03 12:36 51°44.393 2°42.154 7 259 18.5 101910 51
2011-10-03 12:37 51°44.564 2°42.038 6.4 261 18.5 101890 51
2011-10-03 12:38 51°44.745 2°42.036 6.6 263 18.5 101900 52
2011-10-03 12:39 51°44.896 2°41.937 4.9 264 18.5 101890 50
2011-10-03 12:40 51°44.987 2°41.892 7 25 18.5 101890 51
2011-10-03 12:41 51°45.007 2°41.872 7.4 267 18.5 101880 51
2011-10-03 12:42 51°44.996 2°41.861 8.7 266 18.4 101880 51
2011-10-03 12:43 51°44.985 2°41.853 9.9 260 18.4 101880 52
2011-10-03 12:44 51°44.973 2°41.844 6 263 18.4 101890 51
2011-10-03 12:45 51°44.961 2°41.834 7.2 263 18.4 101870 51
2011-10-03 12:46 51°44.951 2°41.825 6.8 262 18.4 101880 51
2011-10-03 12:47 51°44.941 2°41.814 8.9 262 18.4 101880 51
2011-10-03 12:48 51°44.933 2°41.803 7.7 261 18.4 101880 52
2011-10-03 12:49 51°44.923 2°41.792 8.8 263 18.4 101870 52
2011-10-03 12:50 51°44.914 2°41.782 11.2 261 18.4 101870 51
2011-10-03 12:51 51°44.907 2°41.774 6.7 264 18.4 101880 51
2011-10-03 12:52 51°44.898 2°41.765 5.1 265 18.5 101880 52
2011-10-03 12:53 51°44.891 2°41.755 4.9 265 18.4 101880 52
2011-10-03 12:54 51°44.883 2°41.745 9.5 264 18.4 101880 51
2011-10-03 12:55 51°44.875 2°41.736 8.3 261 18.4 101870 51
2011-10-03 12:56 51°44.865 2°41.729 8.7 254 18.5 101870 51
2011-10-03 12:57 51°44.854 2°41.722 8.1 260 18.4 101870 52
2011-10-03 12:58 51°44.843 2°41.719 8.8 261 18.5 101870 52
2011-10-03 12:59 51°44.831 2°41.715 9.3 263 18.5 101870 52
2011-10-03 13:00 51°44.82 2°41.712 7.5 263 18.4 101870 51
2011-10-03 13:01 51°44.808 2°41.707 6.7 265 18.4 101870 52
2011-10-03 13:02 51°44.821 2°41.679 8.2 24 18.4 101870 51
2011-10-03 13:03 51°44.855 2°41.719 7.9 37 18.4 101880 51
2011-10-03 13:04 51°44.812 2°41.81 12.3 1 18.4 101860 51
2011-10-03 13:05 51°44.692 2°41.811 6.6 342 18.4 101860 52
2011-10-03 13:06 51°44.493 2°41.834 7.1 352 18.3 101840 51
2011-10-03 13:07 51°44.279 2°41.887 17.7 347 18.3 101850 51
2011-10-03 13:08 51°44.062 2°41.932 10.5 347 18.3 101850 50
2011-10-03 13:09 51°43.843 2°41.964 7.6 349 18.3 101850 50
2011-10-03 13:10 51°43.625 2°41.997 18.6 347 18.4 101840 50
2011-10-03 13:11 51°43.405 2°42.032 18.5 347 18.4 101840 48
2011-10-03 13:12 51°43.186 2°42.066 8.2 350 18.4 101840 50
2011-10-03 13:13 51°42.968 2°42.105 7.3 350 18.4 101840 49
2011-10-03 13:14 51°42.748 2°42.141 16.3 346 18.4 101850 50
2011-10-03 13:15 51°42.529 2°42.168 7.5 348 18.4 101840 50
2011-10-03 13:16 51°42.311 2°42.205 15.8 346 18.4 101860 50
2011-10-03 13:17 51°42.094 2°42.25 4.9 347 18.4 101850 50
2011-10-03 13:18 51°41.875 2°42.276 12.4 347 18.5 101850 50
2011-10-03 13:19 51°41.658 2°42.308 12.2 347 18.5 101850 48
2011-10-03 13:20 51°41.441 2°42.352 14.4 348 18.5 101850 50
2011-10-03 13:21 51°41.224 2°42.384 12.2 346 18.5 101850 49
2011-10-03 13:22 51°41.009 2°42.422 13.8 347 18.5 101850 49
2011-10-03 13:23 51°40.796 2°42.484 7.2 351 18.5 101850 49
2011-10-03 13:24 51°40.586 2°42.561 14.7 350 18.6 101840 49
2011-10-03 13:25 51°40.374 2°42.633 7.1 348 18.6 101850 49
2011-10-03 13:26 51°40.16 2°42.704 12.3 352 18.6 101850 49
2011-10-03 13:27 51°39.946 2°42.773 14.9 350 18.6 101840 48
2011-10-03 13:28 51°39.733 2°42.842 6.7 350 18.6 101850 49
2011-10-03 13:29 51°39.519 2°42.907 7.2 349 18.6 101860 48
2011-10-03 13:30 51°39.305 2°42.983 11.2 350 18.7 101850 49
2011-10-03 13:31 51°39.093 2°43.062 12.3 350 18.7 101850 49
2011-10-03 13:32 51°38.878 2°43.131 6.9 348 18.6 101860 49
2011-10-03 13:33 51°38.663 2°43.2 16.1 349 18.7 101850 49
2011-10-03 13:34 51°38.447 2°43.266 7.3 351 18.7 101850 48
2011-10-03 13:35 51°38.234 2°43.343 12.8 351 18.7 101850 48
2011-10-03 13:36 51°38.018 2°43.414 16.2 349 18.7 101850 49
2011-10-03 13:37 51°37.805 2°43.493 6.8 348 18.7 101860 49
2011-10-03 13:38 51°37.589 2°43.553 11.4 347 18.6 101860 49
2011-10-03 13:39 51°37.376 2°43.621 17.6 349 18.6 101850 49
2011-10-03 13:40 51°37.164 2°43.7 14 346 18.6 101860 49
2011-10-03 13:41 51°36.951 2°43.778 6.8 348 18.6 101850 49
2011-10-03 13:42 51°36.737 2°43.848 6.5 349 18.6 101850 49
2011-10-03 13:43 51°36.524 2°43.915 13.9 350 18.6 101860 48
2011-10-03 13:44 51°36.311 2°43.976 11 349 18.6 101860 49
2011-10-03 13:45 51°36.1 2°44.051 13.1 349 18.7 101860 49
2011-10-03 13:46 51°35.891 2°44.133 14.7 349 18.7 101860 49
2011-10-03 13:47 51°35.679 2°44.198 4.9 349 18.7 101860 48
2011-10-03 13:48 51°35.469 2°44.264 6.7 347 18.7 101860 49
2011-10-03 13:49 51°35.262 2°44.337 6.7 352 18.8 101870 48
2011-10-03 13:50 51°35.055 2°44.418 13.5 350 18.8 101860 48
2011-10-03 13:51 51°34.846 2°44.482 16.3 347 18.8 101860 46
2011-10-03 13:52 51°34.636 2°44.551 13.6 350 18.8 101860 47
2011-10-03 13:53 51°34.431 2°44.629 17.3 351 18.8 101870 47
2011-10-03 13:54 51°34.224 2°44.711 14 352 18.8 101860 47
2011-10-03 13:55 51°34.018 2°44.785 12.2 350 18.8 101860 48
2011-10-03 13:56 51°33.811 2°44.85 6.9 347 18.8 101870 48
2011-10-03 13:57 51°33.602 2°44.925 6.9 351 18.8 101870 47
2011-10-03 13:58 51°33.394 2°44.999 6.8 352 18.8 101870 47
2011-10-03 13:59 51°33.184 2°45.077 11 348 18.8 101880 46
2011-10-03 14:00 51°32.974 2°45.141 12.1 348 18.8 101880 47
2011-10-03 14:01 51°32.764 2°45.213 10.1 348 18.9 101880 48
2011-10-03 14:02 51°32.556 2°45.293 13.1 350 18.8 101880 48
2011-10-03 14:03 51°32.349 2°45.365 11.6 350 18.9 101870 47
2011-10-03 14:04 51°32.141 2°45.441 15.9 349 18.9 101880 47
2011-10-03 14:05 51°31.931 2°45.502 14 349 19 101870 47
2011-10-03 14:06 51°31.726 2°45.583 12 347 19 101880 46
2011-10-03 14:07 51°31.519 2°45.656 6.5 347 19.1 101880 45
2011-10-03 14:08 51°31.311 2°45.733 14.6 347 19.1 101870 46
2011-10-03 14:09 51°31.105 2°45.808 12.1 349 19.1 101880 46
2011-10-03 14:10 51°30.898 2°45.884 6.4 346 19.1 101880 46
2011-10-03 14:11 51°30.69 2°45.947 10 345 19.1 101890 46
2011-10-03 14:12 51°30.484 2°46.024 5.6 347 19.1 101880 47
2011-10-03 14:13 51°30.28 2°46.112 11.6 349 19.1 101880 46
2011-10-03 14:14 51°30.074 2°46.19 11 348 19.2 101870 46
2011-10-03 14:15 51°29.866 2°46.26 10.7 351 19.3 101870 43
2011-10-03 14:16 51°29.661 2°46.346 12 353 19.4 101860 44
2011-10-03 14:17 51°29.457 2°46.44 15.6 353 19.5 101850 44
2011-10-03 14:18 51°29.252 2°46.529 7.2 356 19.5 101850 44
2011-10-03 14:19 51°29.043 2°46.6 15.1 354 19.5 101840 44
2011-10-03 14:20 51°28.835 2°46.671 6.3 355 19.5 101840 44
2011-10-03 14:21 51°28.629 2°46.759 12.6 348 19.5 101850 44
2011-10-03 14:22 51°28.424 2°46.845 14.6 354 19.5 101850 44
2011-10-03 14:23 51°28.218 2°46.922 14.1 351 19.5 101850 43
2011-10-03 14:24 51°28.017 2°46.975 17.2 355 19.5 101860 44
2011-10-03 14:25 51°27.818 2°47.048 11.9 352 19.5 101850 45
2011-10-03 14:26 51°27.619 2°47.119 11.9 352 19.5 101860 45
2011-10-03 14:27 51°27.417 2°47.186 12.2 351 19.4 101850 45
2011-10-03 14:28 51°27.216 2°47.252 11.2 350 19.4 101860 45
2011-10-03 14:29 51°27.015 2°47.329 10.8 354 19.3 101860 46
2011-10-03 14:30 51°26.815 2°47.422 9.9 353 19.3 101860 47
2011-10-03 14:31 51°26.614 2°47.511 10.6 351 19.3 101860 45
2011-10-03 14:32 51°26.41 2°47.589 10.4 351 19.2 101860 47
2011-10-03 14:33 51°26.209 2°47.695 11.5 353 19.2 101860 47
2011-10-03 14:34 51°26.01 2°47.804 12.7 350 19.2 101870 47
2011-10-03 14:35 51°25.808 2°47.904 10.6 349 19.2 101870 47
2011-10-03 14:36 51°25.608 2°47.962 14.4 339 19.2 101860 47
2011-10-03 14:37 51°25.432 2°47.81 4.2 334 19.4 101870 47
2011-10-03 14:38 51°25.257 2°47.644 3.9 331 19.4 101870 47
2011-10-03 14:39 51°25.086 2°47.474 13.4 335 19.4 101870 45
2011-10-03 14:40 51°24.911 2°47.325 12.5 339 19.4 101870 47
2011-10-03 14:41 51°24.727 2°47.199 11.1 338 19.5 101870 47
2011-10-03 14:42 51°24.534 2°47.19 9.1 347 19.5 101860 46
2011-10-03 14:43 51°24.354 2°47.34 9.7 343 19.4 101870 47
2011-10-03 14:44 51°24.168 2°47.476 9.4 346 19.2 101870 49
2011-10-03 14:45 51°23.98 2°47.604 10.8 348 19.1 101870 48
2011-10-03 14:46 51°23.79 2°47.73 10.7 350 19.1 101860 48
2011-10-03 14:47 51°23.6 2°47.859 8 346 19.2 101860 46
2011-10-03 14:48 51°23.409 2°47.991 8.9 342 19.2 101870 48
2011-10-03 14:49 51°23.22 2°48.13 8 341 19.2 101860 49
2011-10-03 14:50 51°23.029 2°48.261 8.7 343 19.2 101860 49
2011-10-03 14:51 51°22.832 2°48.372 9 343 19.2 101870 49
2011-10-03 14:52 51°22.64 2°48.498 9.5 341 19.2 101870 50
2011-10-03 14:53 51°22.448 2°48.633 8.1 346 19.2 101860 50
2011-10-03 14:54 51°22.251 2°48.748 7.9 350 19.1 101860 50
2011-10-03 14:55 51°22.06 2°48.886 11 351 19.1 101850 46
2011-10-03 14:56 51°21.867 2°49.026 11.8 354 19.5 101840 45
2011-10-03 14:57 51°21.675 2°49.167 12.2 345 19.7 101840 45
2011-10-03 14:58 51°21.486 2°49.298 10.3 349 19.7 101850 47
2011-10-03 14:59 51°21.302 2°49.44 9 351 19.6 101850 46
2011-10-03 15:00 51°21.115 2°49.573 8.7 353 19.6 101840 46
2011-10-03 15:01 51°20.928 2°49.709 8.1 348 19.6 101850 47
2011-10-03 15:02 51°20.742 2°49.83 9.1 349 19.6 101850 47
2011-10-03 15:03 51°20.56 2°49.973 10.2 350 19.5 101850 46
2011-10-03 15:04 51°20.373 2°50.104 9.4 351 19.6 101850 46
2011-10-03 15:05 51°20.188 2°50.244 9.8 352 19.7 101840 46
2011-10-03 15:06 51°19.998 2°50.37 8.9 352 19.7 101850 47
2011-10-03 15:07 51°19.808 2°50.501 9.1 354 19.6 101850 47
2011-10-03 15:08 51°19.621 2°50.644 8.9 352 19.6 101850 46
2011-10-03 15:09 51°19.425 2°50.755 10.3 354 19.7 101850 46
2011-10-03 15:10 51°19.236 2°50.883 10.8 355 19.7 101850 45
2011-10-03 15:11 51°19.047 2°51 8.4 353 19.7 101850 44
2011-10-03 15:12 51°18.86 2°51.121 10 356 19.8 101850 45
2011-10-03 15:13 51°18.676 2°51.257 10.2 355 19.9 101850 43
2011-10-03 15:14 51°18.488 2°51.381 7.1 351 20.1 101850 43
2011-10-03 15:15 51°18.304 2°51.518 8.7 357 20.4 101850 40
2011-10-03 15:16 51°18.115 2°51.633 8.9 352 20.6 101850 40
2011-10-03 15:17 51°17.93 2°51.77 7.9 352 20.8 101860 40
2011-10-03 15:18 51°17.743 2°51.892 7.4 353 20.8 101860 41
2011-10-03 15:19 51°17.556 2°52.016 7 354 20.7 101850 41
2011-10-03 15:20 51°17.376 2°52.165 7.3 351 20.6 101860 42
2011-10-03 15:21 51°17.193 2°52.302 7.3 344 20.4 101860 44
2011-10-03 15:22 51°17.011 2°52.439 8.3 344 20.3 101860 45
2011-10-03 15:23 51°16.838 2°52.61 9 344 20.2 101860 45
2011-10-03 15:24 51°16.66 2°52.766 8.6 345 20.1 101860 45
2011-10-03 15:25 51°16.479 2°52.919 10 345 20.1 101860 45
2011-10-03 15:26 51°16.301 2°53.083 9.3 345 20.1 101860 45
2011-10-03 15:27 51°16.124 2°53.247 8.5 347 20.1 101850 44
2011-10-03 15:28 51°15.951 2°53.421 7.1 347 20.2 101850 44
2011-10-03 15:29 51°15.775 2°53.581 7.7 350 20.2 101850 44
2011-10-03 15:30 51°15.608 2°53.772 7.3 350 20.3 101860 44
2011-10-03 15:31 51°15.442 2°53.965 8.9 347 20.3 101850 45
2011-10-03 15:32 51°15.28 2°54.166 7.1 346 20.3 101860 45
2011-10-03 15:33 51°15.116 2°54.371 7.1 347 20.2 101860 45
2011-10-03 15:34 51°14.953 2°54.574 7.3 347 20.2 101860 45
2011-10-03 15:35 51°14.79 2°54.779 7.2 347 20.2 101850 43
2011-10-03 15:36 51°14.626 2°54.979 9.6 348 20.3 101850 44
2011-10-03 15:37 51°14.452 2°55.148 10.7 353 20.7 101850 41
2011-10-03 15:38 51°14.303 2°55.287 6.5 1 21.2 101850 38
2011-10-03 15:39 51°14.178 2°55.391 6 352 21.9 101850 34
2011-10-03 15:40 51°14.076 2°55.464 4.5 348 22.9 101850 30
2011-10-03 15:41 51°14 2°55.517 4.7 351 23.7 101850 30
2011-10-03 15:42 51°13.933 2°55.565 3.6 5 24.1 101850 29
2011-10-03 15:43 51°13.864 2°55.613 4.1 342 24.4 101850 28
2011-10-03 15:44 51°13.783 2°55.688 3.2 354 24.6 101850 29
2011-10-03 15:45 51°13.715 2°55.801 5.2 7 24.7 101850 30
2011-10-03 15:46 51°13.668 2°55.899 4.8 15 24.7 101860 29
2011-10-03 15:47 51°13.641 2°55.988 0.2 1 24.7 101860 29